Weather Roundup
Issued by NWS Springfield, MO

Home | Current Version | Previous Version | Text Only | Print | Product List | Glossary On
Versions: 1 2 3 4 5 6 7 8 9 10 11 12 13 14 15 16 17 18 19 20 21 22 23 24 25 26 27 28 29 30 31 32 33 34 35 36 37 38 39 40 41 42 43 44 45 46 47 48 49 50
996
NZUS99 KSGF 311957
HRRSGF

HOURLY WEATHER
NATIONAL WEATHER SERVICE SPRINGFIELD MO
300 PM CDT TUE MAY 31 2016

......SGF CWA......

CITY           SKY/WX    TMP DP  RH WIND       PRES   REMARKS
SPRINGFIELD    PTSUNNY   78  63  59 SE10      29.90R
JOPLIN         PTSUNNY   80  67  64 VRB5      29.90R
WEST PLAINS    MOSUNNY   77  64  64 VRB3      29.96F
ROLLA          PTSUNNY   77  65  66 S10       29.92F
BRANSON        PTSUNNY   77  66  69 SE12      29.92F

......SURROUNDING SGF CWA......

CITY           SKY/WX    TMP DP  RH WIND       PRES   REMARKS
CHANUTE        PTSUNNY   79  66  64 NW5       29.91R
PARSONS        PTSUNNY   79  66  64 CALM      29.92S
COFFEYVILLE    MOSUNNY   78  68  71 S5        29.90S
EMPORIA        SUNNY     77  61  57 NE6       29.92S
HARRISON AR    CLOUDY    77  66  68 SE9       29.93F

......KANSAS AND MISSOURI......

CITY           SKY/WX    TMP DP  RH WIND       PRES   REMARKS
KANSAS CTY INT CLOUDY    75  64  68 CALM      29.91F
SEDALIA        CLOUDY    79  66  64 S7        29.91F
ST JOSEPH      CLOUDY    76  63  64 S8        29.90F
ST LOUIS       MOSUNNY   84  63  49 S10G18    29.93F
WICHITA        CLOUDY    78  61  55 NE6       29.92S
TOPEKA         PTSUNNY   77  61  57 CALM      29.90F
OLATHE         PTSUNNY   75  62  64 W5        29.92R

......TENNESSEE......

CITY           SKY/WX    TMP DP  RH WIND       PRES   REMARKS
MEMPHIS        NOT AVBL
NASHVILLE      PTSUNNY   88  57  34 CALM      29.94F

......ARKANSAS.......

CITY           SKY/WX    TMP DP  RH WIND       PRES   REMARKS
FAYETTEVILLE   CLOUDY    75  69  81 S7        29.91R
FT SMITH       CLOUDY    77  66  68 E5        29.89F
LITTLE ROCK    MOSUNNY   82  68  62 MISG      29.91F

......OKLAHOMA.......

CITY           SKY/WX    TMP DP  RH WIND       PRES   REMARKS
TULSA          PTSUNNY   82  70  66 E6        29.87S
PONCA CITY     CLOUDY    78  64  61 SE9       29.90S
MCALESTER      CLOUDY    67  63  87 SE7       29.88F THUNDER
OKLAHOMA CITY  CLOUDY    79  68  69 NE7       29.89R

......IOWA............

CITY           SKY/WX    TMP DP  RH WIND       PRES   REMARKS
DES MOINES     NOT AVBL
QUAD CITIES    CLOUDY    81  58  45 S7        29.92F

......ILLINOIS........

CITY           SKY/WX    TMP DP  RH WIND       PRES   REMARKS
QUINCY         NOT AVBL
CHICAGO        CLOUDY    79  61  53 NW16      29.96S




USA.gov is the U.S. government's official web portal to all federal, state and local government web resources and services.